STARLINK-4124 (53245 NORAD) Tracking and Keplerian Element Data

This shows tracking and keplerian element data for the satellite.

Feedback or suggestion? Click here.




ElementValue
Catalog53245
NameSTARLINK-4124
Epoch Orbit130
Epoch Day269.91667824
Epoch Year2022
RAAN99.4598
Inclination53.2138
Eccentricity0.0001681
Argument of Perigee60.9742
Mean Anonmoly130.8372
Mean Motion15.08825688
Decay Rate0.00028078
L11 53245U 22086D 22269.91667824 .00028078 00000+0 17759-2 0 9996
L22 53245 53.2138 99.4598 0001681 60.9742 130.8372 15.08825688 1300

Live tracking and technical data element details for STARLINK-4124 (NORAD 53245). STARLINK-4124 can be tracked NOW for your location showing map with azimuth and elevation plus other details from your city location.

Track the satellite on the map from your city or location and see movement details for azimuth, elevation, latitude, longitude, range, height, and movement on the map or in text.







IsCatalogInMostPopularTable: catalog: 53245, numindb: 6
Update: records affected: 1



GetName: 53245 STARLINK-4124

Hit Count: updated at: Wed, 05 Oct 2022 09:59:52 GMT